Weather History for Ashtabula, OH

Change the Weather History Date:

Saturday, January 19, 2013

  Actual Average (KYNG) Record (KYNG)
Temperature  
Mean Temperature 42 °F 26 °F  
Max Temperature 50 °F 32 °F 61 °F (1933)
Min Temperature 34 °F 19 °F -22 °F (1994)
Degree Days  
Heating Degree Days 23 40  
Month to date heating degree days 747  
Since 1 July heating degree days 3153  
Cooling Degree Days 0 0  
Month to date cooling degree days 0  
Year to date cooling degree days 0  
Moisture  
Dew Point 21 °F    
Average Humidity 42    
Maximum Humidity 48    
Minimum Humidity 33    
Precipitation  
Precipitation 0.00 in 0.08 in 0.69 in (1952)
Month to date precipitation 1.63  
Year to date precipitation 1.63  
Snow  
Snow 0.00 in 0.50 in - ()
Month to date snowfall 10.3  
Since 1 July snowfall 29.7  
Snow Depth -    
Sea Level Pressure  
Sea Level Pressure 29.94 in    
Wind  
Wind Speed 16 mph (SW)    
Max Wind Speed 20 mph    
Max Gust Speed 31 mph    
Visibility 10 miles    
Events      
T = Trace of Precipitation, MM = Missing Value Source: NWS Daily Summary

Daily Weather History Graph

Daily Weather History Graph

Search for Another Location

Airport:

Trip Planner

Search our weather history database for the weather conditions in past years. The results will help you decide how hot, cold, wet, or windy it might be!

Date:

Astronomy

Jan. 19, 2013 Rise Set
Actual Time 7:45 AM EST 5:22 PM EST
Civil Twilight 7:15 AM EST 5:52 PM EST
Nautical Twilight 6:40 AM EST 6:26 PM EST
Astronomical Twilight 6:07 AM EST 6:59 PM EST
Moon 11:48 AM EST (1/19) 1:16 AM EST (1/19)
Length of Visible Light 10h 37m
Length of Day
9h 36m
First Quarter, 57% of the Moon is Illuminated
Jan 19
First Quarter
Jan 26
Full
Feb 3
Last Quarter
Feb 10
New
Feb 17
First Quarter

Hourly Weather History & Observations

Time (EST) Temp. Windchill Dew Point Humidity Pressure Visibility Wind Dir Wind Speed Gust Speed Precip Events Conditions
12:53 AM 34.0 °F 23.8 °F 15.1 °F 46% 30.11 in 10.0 mi SSW 16.1 mph 25.3 mph N/A   Overcast
1:53 AM 34.0 °F 23.4 °F 16.0 °F 48% 30.10 in 10.0 mi SSW 17.3 mph 25.3 mph N/A   Clear
2:53 AM 36.0 °F 26.3 °F 16.0 °F 44% 30.10 in 10.0 mi SSW 16.1 mph 26.5 mph N/A   Clear
3:53 AM 37.0 °F 27.7 °F 17.1 °F 44% 30.08 in 10.0 mi SSW 16.1 mph 28.8 mph N/A   Clear
4:53 AM 37.0 °F 28.1 °F 17.1 °F 44% 30.06 in 10.0 mi SSW 15.0 mph 25.3 mph N/A   Clear
5:53 AM 36.0 °F 27.1 °F 17.1 °F 46% 30.06 in 10.0 mi SSW 13.8 mph 21.9 mph N/A   Clear
6:53 AM 36.0 °F 27.1 °F 18.0 °F 48% 30.06 in 10.0 mi SSW 13.8 mph - N/A   Clear
7:53 AM 36.0 °F 27.5 °F 18.0 °F 48% 30.06 in 10.0 mi SSW 12.7 mph 21.9 mph N/A   Clear
8:53 AM 37.9 °F 29.6 °F 19.0 °F 47% 30.05 in 10.0 mi SSW 13.8 mph 24.2 mph N/A   Clear
9:53 AM 41.0 °F 32.2 °F 19.9 °F 43% 30.06 in 10.0 mi SW 18.4 mph 28.8 mph N/A   Clear
10:53 AM 43.0 °F 35.1 °F 21.9 °F 43% 30.06 in 10.0 mi SW 17.3 mph - N/A   Clear
11:53 AM 45.0 °F 38.9 °F 24.1 °F 44% 30.01 in 10.0 mi SW 12.7 mph 21.9 mph N/A   Clear
12:53 PM 45.0 °F 38.5 °F 24.1 °F 44% 29.97 in 10.0 mi SW 13.8 mph 23.0 mph N/A   Clear
1:53 PM 48.0 °F - 25.0 °F 41% 29.93 in 10.0 mi SW 15.0 mph 23.0 mph N/A   Clear
2:53 PM 48.9 °F - 25.0 °F 39% 29.89 in 10.0 mi SW 15.0 mph 23.0 mph N/A   Clear
3:53 PM 50.0 °F - 25.0 °F 38% 29.85 in 10.0 mi SSW 13.8 mph 23.0 mph N/A   Clear
4:53 PM 48.9 °F - 24.1 °F 38% 29.81 in 10.0 mi SSW 19.6 mph 31.1 mph N/A   Clear
5:53 PM 48.0 °F - 21.0 °F 34% 29.81 in 10.0 mi SW 17.3 mph 24.2 mph N/A   Clear
6:53 PM 48.0 °F - 19.9 °F 33% 29.81 in 10.0 mi SW 13.8 mph - N/A   Clear
7:53 PM 48.0 °F - 21.0 °F 34% 29.81 in 10.0 mi SW 13.8 mph 17.3 mph N/A   Clear
8:53 PM 48.0 °F - 21.9 °F 36% 29.78 in 10.0 mi SW 16.1 mph 24.2 mph N/A   Partly Cloudy
9:53 PM 46.9 °F - 23.0 °F 39% 29.75 in 10.0 mi SW 15.0 mph 25.3 mph N/A   Clear
10:53 PM 46.9 °F - 24.1 °F 41% 29.72 in 10.0 mi SW 13.8 mph 31.1 mph N/A   Mostly Cloudy
11:53 PM 46.9 °F - 25.0 °F 42% 29.68 in 10.0 mi SW 18.4 mph 31.1 mph N/A   Overcast